Regional Weather Roundup
Issued by NWS Charleston, WV

Home | Current Version | Previous Version | Graphics & Text | Print | Product List | Glossary On
Versions: 1 2 3 4 5 6 7 8 9 10 11 12 13 14 15 16 17 18 19 20 21 22 23 24 25 26 27 28 29 30 31 32 33 34 35 36 37 38 39 40 41 42 43 44 45 46 47 48 49 50
810
ASUS41 KRLX 240810
RWRRLX
West Virginia Regional Weather Roundup
National Weather Service Charleston WV
400 AM EDT SUN JUL 24 2016

Note: "fair" indicates few or no clouds below 12,000 feet with no
significant weather and/or obstructions to visibility.

WVZ003-240900-
Northern Panhandle of West Virginia

CITY           SKY/WX    TMP DP  RH WIND       PRES   REMARKS
WHEELING         N/A     74  66  76 E7        30.02S
$$

WVZ009-240900-
Northwest West Virginia

CITY           SKY/WX    TMP DP  RH WIND       PRES   REMARKS
PARKERSBURG      N/A     72  71  97 CALM      30.03R FOG
$$

WVZ006-240900-
Western West Virginia

CITY           SKY/WX    TMP DP  RH WIND       PRES   REMARKS
HUNTINGTON       N/A     74  72  93 CALM      30.01R FOG
$$

WVZ015-240900-
West Central West Virginia

CITY           SKY/WX    TMP DP  RH WIND       PRES   REMARKS
CHARLESTON       N/A     72  71  97 CALM      30.01F
$$

WVZ022-031-240900-
North Central West Virginia

CITY           SKY/WX    TMP DP  RH WIND       PRES   REMARKS
CLARKSBURG       N/A     73  70  90 CALM      30.02F
MORGANTOWN       N/A     73  71  93 N3        30.04S FOG
$$

WVZ025-035-042-045-240900-
Southern West Virginia

CITY           SKY/WX    TMP DP  RH WIND       PRES   REMARKS
BECKLEY          N/A     68  66  93 S3        30.12S
LOGAN            N/A     73  72  94 CALM      30.04F
BLUEFIELD        N/A     69  66  90 W5        30.14S
LEWISBURG        N/A    N/A N/A N/A MISG        N/A
$$

WVZ047-240900-
Northern Mountains of West Virginia

CITY           SKY/WX    TMP DP  RH WIND       PRES   REMARKS
ELKINS         MOCLDY    67  65  93 CALM      30.09F FOG
$$

WVZ052-240900-
Eastern Panhandle of West Virginia

CITY           SKY/WX    TMP DP  RH WIND       PRES   REMARKS
MARTINSBURG      N/A     72  68  87 CALM      29.98S
PETERSBURG       N/A     70  68  95 CALM      30.02S
$$




USA.gov is the U.S. government's official web portal to all federal, state and local government web resources and services.